Theta_e
325 325 326 331 337 343 346 350 360 357 355 355 357 357 353 353 344 342 343 343 343 342 342 341 343 348 349 348 348 351 348 349 347 348 347 344 346 345 349 347 347 352 349 350
323 323 324 329 332 341 345 359 363 359 357 354 355 356 353 351 350 346 343 344 344 344 343 343 344 347 351 351 346 350 350 350 350 349 349 349 345 345 349 350 348 348 349 350
323 324 324 325 330 338 346 352 358 361 354 349 353 358 357 349 345 346 348 347 344 346 343 348 345 344 347 353 351 353 352 352 350 349 350 348 349 348 350 348 346 350 348 350
322 324 324 324 328 333 345 350 354 358 356 361 356 369 361 352 347 346 348 349 344 347 343 345 345 346 345 349 354 354 355 353 352 352 352 348 347 347 349 350 348 349 349 349
321 322 325 324 327 332 344 353 354 357 359 360 361 365 364 355 349 347 345 350 346 343 344 347 346 347 345 347 349 356 355 355 354 350 352 349 351 350 348 349 350 350 350 349
322 323 326 326 327 334 338 348 352 353 357 358 355 364 371 365 360 350 348 350 349 345 347 344 346 346 348 347 348 352 354 354 353 350 350 351 351 350 350 351 350 351 353 350
321 323 326 328 328 331 338 338 354 364 364 363 354 361 361 360 357 349 349 349 347 346 347 345 346 348 347 348 350 350 355 355 353 354 353 353 352 351 351 352 351 352 353 350
322 322 329 327 330 331 340 338 346 354 353 360 352 357 354 357 353 346 345 348 348 347 343 347 345 349 348 349 352 351 356 355 354 355 352 352 353 353 353 352 352 351 348 350
326 324 327 329 330 331 336 337 337 346 346 349 358 357 358 354 350 345 347 350 349 348 344 347 351 348 344 348 351 354 356 353 354 353 351 352 353 353 354 355 352 355 350 353
327 330 326 328 328 330 333 334 339 341 352 353 353 358 362 358 353 350 352 352 350 348 348 347 350 349 345 345 347 356 357 356 355 353 353 352 353 353 354 355 356 353 350 353
326 329 330 328 329 328 329 330 332 337 339 344 360 361 359 355 352 357 354 351 351 348 350 353 351 350 346 343 348 356 358 356 355 356 353 352 352 353 352 354 354 354 355 354
328 328 330 331 328 327 327 327 330 334 339 340 342 352 345 346 353 355 353 355 350 350 351 354 350 350 350 352 348 354 355 355 354 352 353 354 353 353 351 351 353 353 356 353
329 328 329 330 330 328 327 327 326 327 332 340 343 353 345 348 356 353 352 355 353 357 353 347 348 349 345 337 346 345 354 354 354 351 354 351 352 351 352 350 349 355 355 354
328 329 330 331 333 333 327 325 327 326 330 333 335 354 354 349 358 356 356 356 358 356 350 346 344 354 347 346 347 354 349 346 348 354 353 352 353 352 350 351 351 351 353 355
327 330 331 330 332 332 332 327 325 328 327 330 338 349 356 352 356 355 356 357 356 356 356 352 349 353 342 341 346 355 353 351 350 349 346 350 348 351 352 353 353 351 352 354
329 332 333 333 333 332 332 332 326 327 327 327 329 353 340 340 344 356 359 356 356 356 353 357 357 354 347 348 353 352 350 346 343 344 345 348 350 351 352 352 352 352 352 353
331 336 339 338 335 333 333 339 337 331 329 329 339 355 340 339 339 344 353 356 357 357 357 356 354 351 350 348 350 350 348 347 345 344 344 346 348 348 350 352 354 354 351 353
329 335 335 339 339 340 337 336 335 338 343 346 352 353 342 341 348 350 349 345 345 344 343 341 343 348 349 348 348 347 348 347 346 345 342 343 343 343 346 348 352 352 347 348
325 329 333 341 340 337 337 335 333 333 346 337 350 339 346 350 348 348 346 343 342 335 332 331 330 330 333 339 343 343 346 347 347 346 345 343 343 345 343 342 343 344 345 347
324 330 330 334 340 342 337 334 331 329 341 336 336 344 347 349 353 348 342 340 337 334 329 327 326 327 329 331 335 337 337 337 339 341 342 343 344 343 342 339 339 342 342 340
331 328 330 330 333 337 332 332 327 334 340 334 342 345 341 346 346 342 340 339 334 330 325 324 324 323 324 326 329 327 327 327 329 335 339 339 340 340 338 337 338 340 339 336
331 334 332 332 335 340 327 329 334 334 333 332 338 342 344 343 342 340 339 336 333 329 327 325 323 323 323 324 325 323 323 325 328 329 331 334 334 336 337 338 339 337 336 335
332 325 337 336 336 330 329 330 329 330 333 332 332 339 338 339 339 337 336 334 332 329 328 327 326 326 325 323 322 321 322 323 325 327 327 328 331 331 332 334 335 336 337 336
324 325 333 334 330 328 327 326 327 327 329 329 331 336 338 339 338 336 334 332 329 327 326 325 324 323 324 323 321 321 322 322 322 322 323 326 327 328 328 329 326 323 323 324
327 326 323 331 330 328 326 326 325 325 326 327 329 330 336 337 337 334 334 332 328 326 323 323 323 322 321 320 319 320 321 321 321 321 322 321 323 323 321 316 316 315 315 314
322 322 323 330 331 330 329 327 323 323 324 325 327 329 333 334 334 333 333 331 330 328 326 325 322 320 319 319 318 318 319 319 319 318 318 319 319 320 317 314 311 308 310 309
Wind_Speed
16 11 15 18 20 10 16 14 9 15 12 6 5 3 11 11 11 18 16 16 15 17 20 21 22 25 24 20 16 11 23 20 17 18 12 15 7 7 12 17 10 6 9 5
10 16 17 17 18 15 21 24 17 12 18 3 8 10 15 12 8 10 17 18 14 16 15 20 24 29 30 26 24 13 16 16 15 10 11 13 15 7 10 15 11 8 4 4
17 14 16 17 17 17 21 10 19 13 16 8 7 8 14 15 7 10 11 9 19 19 16 18 17 21 25 29 29 23 17 14 12 13 11 17 16 13 8 11 11 9 7 4
16 16 17 18 17 17 12 15 14 25 14 6 14 3 9 15 15 13 15 14 5 19 13 21 22 14 24 25 27 24 19 15 10 8 13 22 18 18 16 16 15 13 10 7
14 14 10 15 17 15 8 22 16 19 14 6 21 5 9 20 21 20 20 16 14 15 14 17 23 27 24 27 26 26 22 18 13 9 6 13 10 11 11 14 15 13 11 11
15 15 9 15 11 13 5 23 20 10 5 6 17 11 10 19 27 26 20 18 14 16 19 22 23 28 30 26 28 27 25 17 16 13 13 11 8 6 14 22 14 14 12 12
15 15 9 9 14 18 13 12 4 2 5 9 17 14 10 26 27 32 26 23 20 21 22 20 20 24 23 26 29 29 26 21 19 17 15 11 8 11 13 12 13 15 16 18
11 12 15 15 18 17 13 15 5 8 2 6 10 4 7 26 26 27 26 23 23 24 16 23 23 23 23 21 30 30 28 23 21 19 17 14 11 9 9 10 8 5 11 20
7 15 13 19 15 17 15 14 18 17 13 1 6 1 11 21 25 26 27 26 25 24 17 22 28 29 25 13 16 33 29 27 21 19 19 16 11 9 6 10 8 6 4 15
10 10 15 15 13 15 17 11 13 11 15 10 2 3 3 19 27 27 28 27 22 15 23 16 20 34 31 29 17 31 30 28 25 22 19 17 16 11 8 7 8 2 9 9
15 8 15 14 13 16 13 14 14 17 14 12 3 4 2 2 14 20 23 19 19 17 11 11 21 30 32 33 22 27 28 27 25 23 22 21 18 17 12 9 7 6 9 7
13 8 7 15 12 16 15 16 15 11 15 15 8 5 11 13 13 26 20 21 20 20 13 10 6 16 29 29 25 21 23 23 23 24 27 24 23 21 17 14 11 10 7 9
8 10 10 14 12 15 18 19 18 17 16 15 9 3 13 19 19 10 15 17 19 16 10 8 11 16 1 24 14 13 15 11 19 23 22 20 18 20 17 17 12 13 10 7
7 15 15 7 9 16 17 18 19 16 13 12 17 17 18 18 14 17 17 16 18 15 14 7 6 17 15 17 9 24 16 17 24 6 16 18 18 12 11 11 13 11 10 9
7 15 16 9 8 23 21 12 18 16 20 16 8 10 11 15 11 15 15 18 18 17 16 16 14 18 26 33 25 15 17 19 18 10 9 4 4 4 9 5 6 12 11 10
5 8 12 13 9 19 16 23 19 22 20 17 10 18 13 15 18 9 9 9 12 13 15 12 17 26 25 26 24 13 16 14 14 13 7 7 13 14 7 7 6 8 8 10
7 3 7 9 10 15 14 12 17 13 6 14 1 12 18 17 19 13 10 4 7 9 5 13 13 15 16 19 19 16 14 13 14 11 7 4 3 5 1 3 5 5 8 8
8 3 2 3 4 2 13 9 17 13 19 26 18 18 16 16 13 9 4 0 9 11 9 8 11 16 13 17 17 15 10 8 6 6 6 5 5 5 5 5 5 4 7 6
12 4 2 5 2 4 7 14 7 15 11 17 15 12 14 16 17 9 5 5 7 11 12 13 12 13 17 17 13 13 9 7 9 8 7 5 6 6 3 4 2 3 3 6
12 8 5 0 3 2 9 20 22 20 6 14 4 6 1 8 5 6 10 11 10 12 13 14 12 15 16 13 14 17 15 14 12 9 7 7 6 6 5 5 6 8 10 11
10 7 9 5 1 2 8 14 16 13 4 10 11 15 23 6 7 10 10 14 17 16 17 16 15 16 13 11 15 18 17 16 13 13 12 9 8 7 5 6 5 8 12 13
0 6 9 6 3 7 3 7 1 1 6 10 9 11 15 14 14 12 9 15 16 18 18 17 17 16 15 14 15 17 18 14 13 14 14 13 10 7 7 8 7 8 10 11
4 6 3 7 5 7 11 11 7 6 8 8 7 6 10 13 13 6 10 11 14 17 17 17 17 17 14 13 14 17 13 11 11 13 13 10 10 8 8 7 7 7 8 12
6 4 6 11 10 9 7 8 8 9 7 6 7 9 13 13 12 10 8 8 11 14 14 16 16 15 14 12 11 12 9 9 10 9 6 7 8 8 5 4 1 6 3 4
5 1 0 10 10 7 5 9 6 7 7 8 7 6 12 15 14 11 9 12 15 16 17 16 16 15 14 13 13 11 8 8 8 7 6 6 7 4 4 9 10 7 9 8
3 1 2 5 8 10 10 7 2 4 6 6 6 5 11 12 12 11 6 11 14 18 17 19 19 17 16 15 12 10 8 7 6 6 8 9 11 9 5 4 5 6 4 5
Wind_Direction
204 213 219 218 231 243 219 135 135 116 137 126 172 193 251 251 201 178 183 166 173 166 157 159 158 140 141 143 143 111 147 159 162 161 163 154 171 144 123 156 141 135 131 175
183 227 233 224 236 227 259 104 104 105 141 151 185 215 230 229 238 246 187 169 182 151 160 162 156 150 150 145 161 154 159 173 169 168 175 175 158 169 117 143 150 149 173 188
234 214 223 246 244 242 241 136 165 152 137 110 172 242 230 224 261 224 251 280 168 161 159 142 165 166 150 149 161 168 167 182 169 153 167 171 154 151 141 151 163 177 184 229
236 252 210 228 237 251 248 135 132 140 155 165 186 200 203 212 213 220 239 260 147 170 174 164 171 176 149 155 159 159 164 177 194 186 132 162 162 164 194 184 177 177 185 202
226 240 238 226 227 245 169 138 175 151 181 350 190 237 195 187 214 216 225 236 187 184 185 161 175 176 166 169 159 160 163 174 177 188 174 169 171 164 198 206 183 178 192 183
261 206 244 238 234 241 205 120 117 95 70 284 231 205 161 187 202 204 206 219 209 202 181 182 175 197 169 171 158 157 162 169 174 178 181 194 212 131 150 156 168 190 193 201
230 255 254 224 232 232 228 228 128 41 175 226 210 195 226 198 200 191 192 199 198 205 216 168 197 190 167 162 158 157 157 164 175 177 182 186 193 139 180 172 183 193 190 192
213 220 218 219 237 227 206 229 222 220 278 123 192 276 230 182 187 185 191 200 208 211 207 176 182 166 177 175 154 156 158 164 177 181 186 178 182 182 181 169 211 211 200 190
255 219 205 219 216 244 208 226 253 266 283 324 185 343 113 162 169 183 189 203 206 207 188 188 157 166 151 209 170 155 160 165 179 183 183 183 187 199 144 166 185 225 178 159
292 289 254 199 205 250 258 226 234 249 255 252 132 182 109 168 171 187 197 196 206 206 165 164 152 164 176 174 174 157 162 167 183 179 178 188 187 199 181 168 182 152 187 210
264 281 288 181 197 214 230 251 264 257 253 262 132 292 288 331 327 197 186 190 192 199 196 127 178 165 160 165 193 164 164 170 187 181 178 184 191 186 186 188 201 202 212 187
302 264 271 254 207 216 241 226 244 250 255 268 298 88 149 74 323 275 174 180 180 194 194 134 88 152 130 160 185 158 163 175 191 194 185 183 192 182 181 189 196 199 219 226
312 251 255 250 289 216 219 241 228 253 255 269 290 139 176 167 204 245 169 162 168 174 175 167 103 95 167 122 131 177 208 148 202 198 179 191 191 179 185 185 201 194 195 225
298 273 270 342 318 306 198 236 243 236 251 243 255 134 175 198 187 180 141 156 152 164 164 149 83 113 147 87 154 213 157 165 231 182 177 217 193 188 193 199 194 197 202 202
238 260 283 340 298 277 292 232 239 242 245 257 150 156 106 50 301 153 135 146 160 170 172 167 176 144 124 141 222 186 162 175 202 198 147 89 86 273 231 235 196 201 215 213
261 285 308 270 249 269 262 273 214 238 235 254 245 92 83 57 29 330 104 114 152 171 180 148 133 143 161 168 189 169 151 165 199 221 231 119 139 195 245 233 242 230 222 226
296 17 350 300 10 342 286 352 8 276 253 278 56 94 92 92 99 331 340 149 114 64 120 144 138 126 133 138 158 171 168 159 160 162 171 158 145 172 185 302 273 271 233 217
252 86 48 339 8 243 351 2 357 4 33 38 69 88 106 126 140 136 149 98 86 71 65 73 74 112 156 159 162 172 176 171 183 178 168 170 212 230 228 272 255 249 237 224
242 226 166 254 172 240 298 14 4 347 7 32 50 98 112 127 114 107 133 167 110 97 81 69 69 72 83 91 117 143 142 159 164 146 138 146 154 151 187 199 221 229 152 165
263 137 228 197 61 335 336 323 325 322 29 359 24 107 95 158 134 124 112 118 106 102 97 93 85 92 95 104 125 123 110 98 85 102 113 129 134 131 143 142 111 94 106 100
318 276 213 169 77 105 248 256 301 267 45 343 35 76 147 146 96 131 144 125 118 115 108 102 96 85 93 114 122 107 102 89 94 110 121 114 120 124 123 138 151 114 115 119
262 343 292 123 38 180 295 274 341 92 25 21 12 57 88 111 123 129 122 114 118 114 116 114 110 102 102 111 117 106 94 93 105 99 96 93 96 121 106 105 117 134 135 125
121 209 275 347 116 118 86 93 66 65 54 35 353 69 76 91 112 121 113 123 125 124 120 117 114 114 107 96 104 107 108 112 115 105 92 84 96 106 107 104 116 133 165 158
176 140 179 188 135 115 104 96 75 55 54 16 4 55 111 115 117 115 93 90 97 109 114 119 119 113 109 107 109 105 114 108 101 101 112 115 96 78 106 133 62 124 116 49
51 237 233 122 138 148 133 79 51 63 37 32 29 21 98 122 128 143 146 154 151 145 140 131 124 121 118 119 112 109 109 123 128 132 143 164 167 111 72 67 84 78 77 56
210 191 231 47 116 100 112 105 56 39 38 21 15 36 66 111 132 143 142 150 144 153 154 144 131 123 123 119 116 116 116 120 142 146 187 195 173 164 160 131 92 55 68 56